Location: Bourg-d�Oueil
(42.8588°N, 0.4991°E)
Time: 13:09:36
(UTC+00:00)

Cosmos 1331 Rocket - Pass Details

Date: 16 June 2021
Orbit: 749 x 778 km, 74.0° (Epoch: 31 July)

Event Time Altitude Azimuth Distance (km) Brightness Sun altitude
Exits shadow 21:22:11 15° 181° (S) 1,989 5.7 -14.6°
Maximum altitude 21:26:29 59° 106° (ESE) 889 4.1 -15.0°
Drops below altitude 10° 21:31:39 10° 28° (NNE) 2,323 6.9 -15.6°
Sets 21:34:04 0° 24° (NNE) 3,258 7.7 -15.8°
